Flag for Denmark Weather past 2 weeks in Copenhagen, Denmark

Now
39 °F

Drizzle. Low clouds.


Feels Like: 31 °F
Forecast: 35 / 38 °F
Wind: 14 mph from Southwest

Location: Koebenhavn-Kastrup Airport

Current Time: Jan 28, 2015 at 10:18:55 AM

Latest Report: Jan 28, 2015 at 9:50 AM


Visibility: 2 mi

Pressure: 29.65 "Hg

Humidity: 93%

Dew point: 37 °F

Location of CopenhagenLocation

Historic Weather in Copenhagen — Graph

°F

Copenhagen temperature yesterday

Maximum temperature yesterday: 39 °F (at 12:20 AM)
Minimum temperature yesterday: 27 °F (at 11:20 PM)
Average temperature yesterday: 36 °F

Past Weeks' High & Low Weather Summary

 TemperatureHumidityPressure
High46 °F (Jan 13, 12:50 PM)100% (Jan 13, 9:20 AM)30.27 "Hg (Jan 13, 9:20 AM)
Low27 °F (Jan 25, 8:20 PM)70% (Jan 17, 1:50 PM)29.30 "Hg (Jan 15, 6:50 PM)
Average36 °F90%29.86 "Hg
* Reported Jan 13 9:20 AM — Jan 28 9:20 AM, Copenhagen, Weather by CustomWeather, © 2014

Note: Actual official high and low records may vary slightly from our data, if they occured in-between our weather recording intervals... More about our weather records

Advertising

Copenhagen weather history for previous 24 hours

 ConditionsComfort  
Time TempWeatherWind HumidityBarometerVisibility
9:20 AM
Jan 28
39 °FLow clouds.14 mph93%29.65 "Hg3 mi
8:50 AM39 °FFog.14 mph93%29.68 "Hg2 mi
8:20 AM39 °FFog.14 mph93%29.71 "Hg1 mi
7:50 AM37 °FFog.15 mph100%29.71 "Hg1 mi
7:20 AM37 °FFog.13 mph100%29.71 "Hg2 mi
6:50 AM37 °FDrizzle. Low clouds.13 mph100%29.74 "Hg2 mi
6:20 AM37 °FDrizzle. Low clouds.13 mph100%29.74 "Hg2 mi
5:50 AM37 °FFog.10 mph100%29.77 "Hg2 mi
5:20 AM37 °FFog.10 mph100%29.77 "Hg2 mi
5:03 AM37 °FFog.12 mph100%29.80 "Hg2 mi
4:20 AM36 °FFog.13 mph100%29.80 "Hg1 mi
3:50 AM36 °FFog.12 mph100%29.83 "Hg1 mi
3:20 AM36 °FFog.12 mph100%29.83 "Hg1 mi
2:50 AM34 °FFog.12 mph100%29.86 "Hg0 mi
2:20 AM34 °FFog.9 mph100%29.86 "Hg1 mi
1:50 AM32 °FPartly cloudy.7 mph100%29.86 "Hg5 mi
1:20 AM34 °FPassing clouds.8 mph93%29.86 "HgN/A
12:50 AM30 °FPassing clouds.9 mph100%29.89 "HgN/A
12:20 AM30 °FClear.8 mph93%29.89 "Hg10 mi
11:50 PM
Jan 27
28 °FClear.6 mph93%29.89 "Hg10 mi
11:20 PM27 °FClear.5 mph100%29.92 "Hg10 mi
10:50 PM30 °FClear.3 mph93%29.92 "Hg10 mi
10:20 PM30 °FClear.1 mph93%29.92 "Hg10 mi
9:50 PM32 °FPassing clouds.5 mph93%29.92 "HgN/A
9:20 PM30 °FClear.3 mph93%29.95 "Hg10 mi
8:50 PM32 °FPassing clouds.6 mph93%29.95 "HgN/A
8:20 PM30 °FClear.7 mph100%29.95 "Hg10 mi
7:50 PM30 °FClear.7 mph100%29.92 "Hg10 mi
7:20 PM30 °FPassing clouds.5 mph93%29.95 "HgN/A
6:50 PM34 °FPassing clouds.5 mph93%29.95 "HgN/A
6:20 PM36 °FPassing clouds.7 mph87%29.95 "HgN/A
5:50 PM36 °FPassing clouds.8 mph87%29.92 "HgN/A
5:20 PM36 °FPassing clouds.8 mph87%29.92 "HgN/A
4:50 PM36 °FPassing clouds.10 mph87%29.92 "HgN/A
4:20 PM36 °FPartly sunny.14 mph93%29.92 "HgN/A
3:50 PM36 °FPartly sunny.14 mph87%29.89 "HgN/A
3:20 PM36 °FPartly sunny.13 mph87%29.89 "HgN/A
2:50 PM36 °FPartly sunny.13 mph87%29.89 "HgN/A
2:20 PM36 °FPartly sunny.13 mph87%29.89 "HgN/A
1:50 PM36 °FPartly sunny.13 mph93%29.86 "HgN/A
1:20 PM37 °FPartly sunny.12 mph87%29.86 "HgN/A
12:50 PM37 °FPartly sunny.17 mph87%29.86 "HgN/A
12:20 PM37 °FPartly sunny.17 mph87%29.83 "HgN/A
11:50 AM37 °FPartly sunny.15 mph87%29.83 "HgN/A
11:20 AM37 °FPartly sunny.16 mph87%29.83 "HgN/A
10:50 AM37 °FPartly sunny.16 mph87%29.83 "HgN/A
10:20 AM37 °FPartly sunny.14 mph87%29.80 "HgN/A
Weather by CustomWeather, © 2014

See weather overviewHow to use our weather pages